Tracking 19792 objects as of 17-Jul-2019
HD Live streaming from Space Station
objects crossing your sky now

WESTFORD NEEDLES

Track WESTFORD NEEDLES now!
10-day predictions
WESTFORD NEEDLES is classified as:


NORAD ID: 2377
Int'l Code: 1963-014X
Perigee: 2,790.7 km
Apogee: 4,455.8 km
Inclination: 87.3 °
Period: 165.7 minutes
Semi major axis: 9994 km
RCS: 0.1884 m2 (medium)
Launch date: May 9, 1963
Source: United States (US)
Launch site: AIR FORCE WESTERN TEST RANGE (AFWTR)
aabbcc
Your satellite tracking list
Your tracking list is empty




NASA's NSSDC Master Catalog

Two Line Element Set (TLE):
1  2377U 63014X   19197.54874511  .00000175  00000-0  53934-1 0  9993
2  2377  87.3222  53.6694 0833046  88.7368 280.8685  8.68913780706372
Source of the keplerian elements: AFSPC